QPF
0.01 0.00 0.00 0.00 0.00 0.00 0.00 0.01 0.01 0.01 0.00 0.00 0.00 0.00 0.00 0.00 0.00 0.00 0.00 0.00 0.00 0.00 0.00 0.00 0.00 0.00 0.00 0.00 0.00 0.00 0.00 0.00 0.00 0.00 0.00 0.00 0.01 0.01
0.01 0.01 0.01 0.00 0.00 0.00 0.00 0.01 0.01 0.01 0.01 0.00 0.00 0.01 0.01 0.01 0.01 0.01 0.01 0.00 0.00 0.00 0.00 0.00 0.00 0.00 0.00 0.00 0.00 0.00 0.00 0.00 0.00 0.00 0.00 0.01 0.01 0.01
0.01 0.02 0.02 0.02 0.01 0.01 0.01 0.02 0.02 0.03 0.02 0.00 0.01 0.04 0.03 0.03 0.04 0.03 0.01 0.01 0.00 0.00 0.00 0.00 0.00 0.00 0.00 0.00 0.00 0.00 0.00 0.00 0.00 0.00 0.00 0.00 0.00 0.00
0.01 0.02 0.03 0.04 0.04 0.03 0.03 0.03 0.03 0.03 0.03 0.02 0.03 0.05 0.05 0.06 0.07 0.07 0.04 0.02 0.01 0.00 0.00 0.00 0.00 0.00 0.00 0.00 0.00 0.00 0.00 0.00 0.00 0.00 0.00 0.00 0.00 0.00
0.00 0.01 0.02 0.04 0.05 0.04 0.04 0.04 0.04 0.05 0.06 0.05 0.04 0.04 0.04 0.04 0.06 0.08 0.06 0.03 0.01 0.01 0.00 0.00 0.00 0.00 0.00 0.00 0.00 0.00 0.00 0.00 0.00 0.00 0.00 0.00 0.00 0.01
0.00 0.01 0.01 0.02 0.02 0.03 0.04 0.05 0.07 0.08 0.08 0.07 0.06 0.05 0.05 0.05 0.07 0.06 0.05 0.03 0.02 0.01 0.00 0.00 0.00 0.00 0.00 0.00 0.00 0.00 0.00 0.00 0.00 0.00 0.00 0.00 0.01 0.01
0.00 0.00 0.00 0.01 0.01 0.02 0.04 0.08 0.12 0.14 0.13 0.12 0.11 0.10 0.08 0.07 0.06 0.07 0.07 0.05 0.02 0.00 0.00 0.00 0.00 0.00 0.00 0.00 0.00 0.00 0.00 0.00 0.00 0.00 0.00 0.00 0.01 0.01
0.00 0.00 0.00 0.00 0.01 0.02 0.05 0.12 0.20 0.25 0.26 0.23 0.20 0.16 0.10 0.08 0.08 0.09 0.08 0.06 0.02 0.00 0.00 0.00 0.00 0.00 0.00 0.00 0.00 0.00 0.00 0.00 0.00 0.00 0.00 0.00 0.00 0.00
0.00 0.00 0.00 0.01 0.01 0.02 0.05 0.11 0.18 0.22 0.25 0.25 0.25 0.20 0.16 0.12 0.11 0.11 0.10 0.07 0.03 0.01 0.00 0.00 0.00 0.00 0.00 0.00 0.00 0.00 0.00 0.00 0.00 0.00 0.00 0.00 0.00 0.00
0.00 0.01 0.01 0.01 0.01 0.03 0.06 0.09 0.10 0.11 0.15 0.19 0.21 0.21 0.20 0.19 0.16 0.14 0.14 0.12 0.07 0.02 0.00 0.00 0.00 0.00 0.00 0.00 0.00 0.00 0.00 0.00 0.00 0.00 0.00 0.00 0.00 0.00
0.00 0.01 0.01 0.01 0.02 0.04 0.09 0.13 0.13 0.11 0.14 0.18 0.22 0.23 0.21 0.20 0.17 0.13 0.12 0.10 0.07 0.02 0.00 0.00 0.00 0.00 0.00 0.00 0.00 0.00 0.00 0.00 0.00 0.00 0.00 0.00 0.00 0.00
0.01 0.01 0.01 0.02 0.03 0.06 0.11 0.16 0.18 0.14 0.14 0.18 0.21 0.22 0.20 0.20 0.19 0.15 0.15 0.14 0.10 0.04 0.01 0.00 0.00 0.00 0.00 0.00 0.00 0.00 0.00 0.00 0.00 0.00 0.00 0.00 0.00 0.00
0.02 0.01 0.01 0.03 0.05 0.08 0.10 0.14 0.18 0.17 0.15 0.19 0.23 0.24 0.25 0.24 0.23 0.23 0.21 0.15 0.09 0.03 0.01 0.00 0.00 0.00 0.00 0.00 0.00 0.00 0.00 0.00 0.00 0.00 0.00 0.00 0.00 0.00
0.01 0.01 0.01 0.03 0.04 0.06 0.08 0.12 0.19 0.19 0.17 0.24 0.28 0.27 0.25 0.23 0.22 0.21 0.16 0.09 0.04 0.01 0.01 0.00 0.00 0.00 0.00 0.00 0.00 0.00 0.00 0.00 0.00 0.00 0.00 0.00 0.00 0.00
0.01 0.01 0.02 0.03 0.04 0.05 0.08 0.12 0.12 0.09 0.14 0.25 0.32 0.32 0.30 0.28 0.23 0.16 0.09 0.05 0.03 0.01 0.00 0.00 0.00 0.00 0.00 0.00 0.00 0.00 0.00 0.00 0.00 0.00 0.00 0.00 0.00 0.00
0.00 0.01 0.02 0.03 0.04 0.05 0.09 0.09 0.06 0.07 0.12 0.16 0.22 0.28 0.29 0.25 0.18 0.12 0.09 0.07 0.04 0.01 0.00 0.00 0.00 0.00 0.00 0.00 0.00 0.00 0.00 0.00 0.00 0.00 0.00 0.00 0.00 0.00
0.01 0.01 0.02 0.03 0.03 0.05 0.08 0.08 0.07 0.10 0.12 0.13 0.17 0.19 0.17 0.14 0.12 0.10 0.07 0.04 0.02 0.00 0.00 0.00 0.00 0.00 0.00 0.00 0.00 0.00 0.00 0.00 0.00 0.00 0.00 0.00 0.00 0.00
0.04 0.03 0.04 0.05 0.07 0.10 0.10 0.10 0.10 0.10 0.11 0.14 0.17 0.18 0.17 0.16 0.16 0.12 0.06 0.02 0.00 0.00 0.00 0.00 0.00 0.00 0.00 0.00 0.00 0.00 0.00 0.00 0.00 0.00 0.00 0.00 0.00 0.00
0.06 0.07 0.09 0.12 0.13 0.13 0.13 0.13 0.14 0.16 0.18 0.20 0.22 0.22 0.22 0.21 0.17 0.10 0.04 0.01 0.00 0.00 0.00 0.00 0.00 0.00 0.00 0.00 0.00 0.00 0.00 0.00 0.00 0.00 0.00 0.00 0.00 0.00
0.09 0.14 0.18 0.20 0.18 0.15 0.15 0.17 0.19 0.22 0.24 0.25 0.27 0.29 0.31 0.28 0.18 0.07 0.02 0.00 0.00 0.00 0.00 0.00 0.00 0.00 0.00 0.00 0.00 0.00 0.00 0.00 0.00 0.00 0.00 0.00 0.00 0.00
0.09 0.16 0.20 0.21 0.18 0.16 0.15 0.17 0.21 0.25 0.29 0.31 0.34 0.39 0.36 0.23 0.10 0.02 0.00 0.00 0.00 0.00 0.00 0.00 0.00 0.00 0.00 0.00 0.00 0.00 0.00 0.00 0.00 0.00 0.01 0.01 0.01 0.00
0.05 0.10 0.14 0.17 0.17 0.16 0.16 0.19 0.27 0.33 0.37 0.38 0.41 0.39 0.26 0.11 0.03 0.00 0.00 0.00 0.00 0.00 0.00 0.00 0.00 0.00 0.00 0.00 0.00 0.00 0.00 0.00 0.00 0.00 0.01 0.03 0.03 0.01
0.02 0.06 0.11 0.15 0.18 0.20 0.20 0.20 0.25 0.32 0.38 0.39 0.36 0.26 0.12 0.04 0.00 0.00 0.00 0.00 0.00 0.00 0.00 0.00 0.00 0.00 0.00 0.00 0.00 0.00 0.00 0.00 0.00 0.00 0.01 0.02 0.03 0.03
MSLP
1002.81 1002.81 1002.83 1002.86 1002.86 1002.79 1002.67 1002.49 1002.26 1002.02 1001.77 1001.56 1001.40 1001.31 1001.29 1001.34 1001.45 1001.62 1001.85 1002.12 1002.44 1002.80 1003.20 1003.61 1004.03 1004.45 1004.83 1005.17 1005.45 1005.68 1005.86 1006.00 1006.10 1006.18 1006.23 1006.26 1006.25 1006.21
1001.84 1001.75 1001.70 1001.66 1001.61 1001.54 1001.42 1001.27 1001.08 1000.89 1000.71 1000.55 1000.45 1000.42 1000.44 1000.54 1000.70 1000.92 1001.19 1001.50 1001.86 1002.25 1002.66 1003.09 1003.50 1003.91 1004.27 1004.60 1004.87 1005.10 1005.29 1005.45 1005.58 1005.69 1005.79 1005.85 1005.87 1005.84
1001.00 1000.78 1000.62 1000.50 1000.38 1000.27 1000.13 999.99 999.83 999.69 999.57 999.50 999.48 999.53 999.64 999.81 1000.05 1000.33 1000.66 1001.03 1001.42 1001.84 1002.25 1002.67 1003.07 1003.43 1003.77 1004.06 1004.31 1004.53 1004.71 1004.88 1005.04 1005.19 1005.31 1005.41 1005.46 1005.45
1000.28 999.94 999.66 999.43 999.22 999.03 998.85 998.69 998.55 998.44 998.37 998.37 998.44 998.58 998.79 999.06 999.39 999.76 1000.17 1000.60 1001.04 1001.48 1001.91 1002.31 1002.68 1003.01 1003.29 1003.54 1003.76 1003.95 1004.13 1004.30 1004.48 1004.65 1004.81 1004.94 1005.01 1005.01
999.71 999.26 998.86 998.51 998.19 997.90 997.65 997.43 997.26 997.15 997.11 997.16 997.29 997.52 997.82 998.19 998.63 999.10 999.60 1000.11 1000.61 1001.09 1001.53 1001.93 1002.28 1002.58 1002.82 1003.03 1003.20 1003.36 1003.53 1003.70 1003.89 1004.09 1004.27 1004.42 1004.52 1004.54
999.31 998.77 998.26 997.79 997.35 996.94 996.57 996.26 996.02 995.87 995.81 995.87 996.03 996.31 996.69 997.15 997.68 998.26 998.86 999.46 1000.04 1000.58 1001.06 1001.48 1001.82 1002.10 1002.31 1002.48 1002.63 1002.76 1002.91 1003.08 1003.27 1003.48 1003.68 1003.86 1003.98 1004.01
999.09 998.48 997.88 997.29 996.71 996.17 995.67 995.23 994.88 994.63 994.51 994.53 994.68 994.98 995.40 995.93 996.54 997.21 997.91 998.61 999.28 999.89 1000.44 1000.89 1001.26 1001.54 1001.75 1001.91 1002.03 1002.15 1002.28 1002.44 1002.63 1002.84 1003.06 1003.25 1003.38 1003.44
999.02 998.35 997.67 996.97 996.27 995.58 994.93 994.35 993.86 993.49 993.27 993.21 993.32 993.60 994.03 994.59 995.26 996.01 996.80 997.59 998.36 999.06 999.68 1000.20 1000.61 1000.93 1001.15 1001.30 1001.42 1001.53 1001.65 1001.80 1001.98 1002.19 1002.41 1002.61 1002.76 1002.84
999.04 998.33 997.58 996.78 995.96 995.13 994.33 993.60 992.97 992.48 992.14 991.99 992.04 992.27 992.69 993.27 993.98 994.78 995.64 996.52 997.37 998.16 998.87 999.46 999.93 1000.29 1000.54 1000.71 1000.84 1000.94 1001.05 1001.18 1001.35 1001.55 1001.76 1001.95 1002.11 1002.21
999.06 998.31 997.49 996.61 995.68 994.74 993.82 992.96 992.21 991.61 991.18 990.95 990.94 991.14 991.53 992.11 992.84 993.68 994.59 995.53 996.46 997.33 998.10 998.76 999.30 999.71 1000.00 1000.20 1000.33 1000.43 1000.53 1000.64 1000.79 1000.96 1001.14 1001.32 1001.46 1001.56
999.00 998.20 997.32 996.35 995.34 994.31 993.31 992.38 991.56 990.90 990.42 990.15 990.11 990.30 990.69 991.27 992.01 992.87 993.81 994.79 995.76 996.68 997.50 998.22 998.80 999.25 999.58 999.80 999.94 1000.04 1000.12 1000.20 1000.31 1000.43 1000.57 1000.71 1000.83 1000.91
998.80 997.93 996.97 995.94 994.87 993.79 992.75 991.80 990.98 990.33 989.87 989.63 989.61 989.81 990.22 990.82 991.57 992.44 993.39 994.38 995.37 996.30 997.15 997.89 998.50 998.97 999.32 999.55 999.69 999.77 999.82 999.86 999.91 999.98 1000.06 1000.14 1000.21 1000.25
998.41 997.46 996.43 995.34 994.24 993.15 992.14 991.23 990.47 989.90 989.52 989.36 989.42 989.69 990.15 990.78 991.54 992.42 993.36 994.33 995.29 996.21 997.05 997.78 998.39 998.86 999.21 999.43 999.56 999.61 999.62 999.61 999.59 999.58 999.59 999.59 999.59 999.58
997.88 996.84 995.74 994.61 993.50 992.44 991.49 990.67 990.03 989.59 989.35 989.33 989.50 989.87 990.40 991.07 991.86 992.72 993.64 994.57 995.49 996.36 997.15 997.85 998.43 998.88 999.20 999.41 999.50 999.52 999.48 999.40 999.31 999.21 999.13 999.04 998.97 998.89
997.28 996.15 994.99 993.84 992.73 991.73 990.87 990.18 989.69 989.40 989.33 989.47 989.78 990.26 990.87 991.59 992.38 993.23 994.10 994.98 995.83 996.63 997.36 998.00 998.53 998.95 999.23 999.40 999.46 999.43 999.32 999.18 999.00 998.82 998.64 998.47 998.31 998.17
996.72 995.52 994.32 993.15 992.07 991.13 990.37 989.81 989.47 989.35 989.44 989.72 990.17 990.75 991.43 992.18 992.97 993.79 994.61 995.41 996.18 996.91 997.56 998.14 998.61 998.98 999.22 999.35 999.36 999.27 999.11 998.89 998.63 998.36 998.09 997.83 997.60 997.40
996.30 995.07 993.84 992.68 991.63 990.75 990.08 989.63 989.42 989.43 989.65 990.05 990.59 991.24 991.96 992.72 993.49 994.27 995.02 995.75 996.45 997.09 997.67 998.18 998.60 998.91 999.11 999.19 999.16 999.02 998.80 998.50 998.16 997.81 997.45 997.11 996.81 996.56
996.12 994.87 993.65 992.51 991.50 990.67 990.06 989.69 989.56 989.65 989.95 990.41 991.00 991.67 992.39 993.13 993.87 994.59 995.28 995.94 996.56 997.13 997.65 998.10 998.47 998.74 998.90 998.94 998.86 998.66 998.37 998.00 997.59 997.14 996.71 996.30 995.94 995.65
996.17 994.95 993.75 992.64 991.67 990.88 990.31 989.98 989.88 990.00 990.32 990.79 991.37 992.03 992.72 993.41 994.10 994.76 995.39 995.98 996.54 997.06 997.53 997.93 998.25 998.48 998.60 998.60 998.47 998.21 997.85 997.41 996.91 996.39 995.87 995.39 994.98 994.65
996.42 995.25 994.10 993.03 992.08 991.33 990.77 990.45 990.34 990.45 990.74 991.17 991.72 992.32 992.96 993.60 994.23 994.83 995.41 995.95 996.47 996.94 997.37 997.74 998.02 998.21 998.29 998.23 998.04 997.72 997.28 996.76 996.17 995.56 994.96 994.41 993.95 993.58
996.78 995.67 994.58 993.55 992.64 991.90 991.35 991.01 990.88 990.95 991.19 991.57 992.05 992.60 993.18 993.76 994.34 994.90 995.44 995.95 996.43 996.87 997.27 997.60 997.84 997.99 998.00 997.89 997.62 997.22 996.70 996.09 995.41 994.71 994.02 993.40 992.88 992.47
997.14 996.10 995.06 994.08 993.21 992.48 991.93 991.57 991.42 991.44 991.64 991.96 992.39 992.89 993.43 993.97 994.52 995.05 995.56 996.05 996.51 996.92 997.28 997.57 997.77 997.85 997.80 997.60 997.26 996.76 996.15 995.44 994.66 993.87 993.10 992.41 991.82 991.37
997.39 996.41 995.43 994.50 993.66 992.96 992.42 992.06 991.88 991.89 992.06 992.35 992.76 993.23 993.75 994.28 994.82 995.34 995.84 996.31 996.74 997.12 997.44 997.67 997.80 997.81 997.67 997.39 996.94 996.35 995.64 994.84 993.97 993.10 992.26 991.50 990.85 990.36
Thickness
5627 5623 5619 5617 5613 5608 5602 5596 5589 5589 5598 5599 5594 5594 5588 5583 5579 5571 5565 5562 5557 5551 5548 5542 5535 5527 5521 5515 5509 5503 5497 5491 5485 5477 5469 5462 5455 5447
5620 5616 5613 5611 5606 5600 5596 5592 5587 5583 5588 5598 5592 5588 5584 5579 5574 5566 5561 5557 5551 5546 5541 5535 5527 5520 5513 5507 5502 5495 5488 5482 5475 5467 5459 5451 5443 5433
5608 5606 5606 5604 5599 5594 5589 5586 5583 5578 5579 5591 5586 5581 5575 5571 5564 5558 5553 5548 5543 5540 5534 5527 5520 5514 5507 5500 5494 5488 5481 5473 5465 5456 5448 5439 5429 5420
5591 5591 5591 5591 5590 5588 5585 5582 5580 5577 5572 5576 5579 5572 5565 5560 5553 5547 5543 5538 5534 5531 5526 5520 5512 5506 5499 5493 5487 5480 5472 5463 5454 5444 5435 5427 5417 5406
5574 5573 5575 5576 5578 5580 5580 5579 5577 5575 5570 5568 5571 5566 5556 5549 5540 5535 5531 5528 5525 5521 5517 5511 5503 5497 5490 5484 5478 5471 5463 5454 5444 5432 5422 5413 5404 5394
5559 5559 5561 5562 5564 5566 5568 5570 5571 5569 5567 5563 5563 5558 5546 5539 5532 5526 5522 5519 5516 5513 5508 5502 5495 5489 5482 5477 5469 5461 5453 5443 5432 5420 5410 5401 5392 5381
5545 5545 5547 5547 5548 5549 5551 5557 5559 5561 5561 5561 5560 5554 5542 5531 5529 5527 5524 5516 5509 5505 5498 5495 5488 5481 5474 5468 5461 5452 5442 5432 5421 5410 5399 5390 5381 5370
5526 5531 5533 5534 5536 5537 5539 5543 5547 5550 5554 5556 5558 5556 5554 5544 5535 5527 5521 5509 5503 5498 5491 5485 5480 5473 5466 5459 5452 5444 5434 5423 5411 5400 5389 5379 5369 5359
5505 5510 5516 5520 5520 5523 5528 5534 5540 5543 5545 5547 5549 5554 5554 5550 5537 5525 5520 5515 5509 5498 5486 5478 5472 5465 5459 5453 5446 5437 5426 5415 5403 5391 5380 5369 5359 5350
5485 5489 5494 5501 5504 5505 5511 5520 5529 5536 5538 5539 5542 5547 5548 5547 5543 5535 5521 5504 5492 5485 5481 5472 5463 5456 5452 5445 5438 5429 5418 5407 5395 5383 5371 5361 5351 5342
5468 5470 5472 5478 5485 5486 5490 5501 5514 5524 5526 5528 5532 5536 5538 5536 5533 5521 5507 5496 5482 5473 5469 5463 5454 5447 5441 5435 5428 5420 5410 5397 5385 5374 5363 5354 5345 5337
5447 5451 5453 5457 5464 5469 5473 5483 5498 5511 5511 5513 5515 5518 5519 5519 5516 5515 5507 5495 5481 5467 5460 5452 5443 5435 5427 5422 5416 5408 5397 5387 5376 5366 5356 5348 5340 5332
5421 5429 5437 5443 5450 5457 5463 5472 5486 5497 5499 5500 5498 5497 5495 5494 5491 5491 5489 5486 5477 5465 5456 5445 5434 5424 5416 5408 5401 5394 5384 5374 5364 5354 5346 5340 5333 5327
5398 5409 5419 5430 5440 5451 5461 5472 5483 5491 5489 5487 5485 5483 5480 5477 5474 5472 5469 5466 5466 5459 5448 5438 5426 5414 5402 5391 5383 5377 5370 5362 5352 5344 5336 5330 5325 5321
5385 5396 5408 5422 5435 5448 5460 5469 5480 5484 5482 5480 5477 5473 5469 5466 5462 5457 5452 5450 5447 5441 5434 5426 5416 5404 5392 5380 5370 5362 5354 5349 5342 5334 5327 5322 5318 5314
5377 5392 5408 5422 5433 5443 5452 5461 5468 5471 5473 5473 5467 5462 5457 5454 5451 5447 5442 5439 5434 5426 5420 5414 5405 5394 5382 5372 5362 5354 5344 5337 5334 5326 5321 5318 5316 5313
5371 5389 5404 5414 5426 5434 5437 5441 5449 5456 5457 5457 5455 5451 5448 5445 5441 5437 5434 5432 5428 5420 5411 5402 5393 5383 5373 5363 5355 5349 5341 5332 5327 5322 5318 5317 5316 5313
5364 5377 5388 5398 5408 5417 5424 5429 5435 5440 5443 5444 5442 5441 5439 5436 5432 5429 5426 5424 5420 5413 5402 5391 5380 5367 5359 5358 5354 5345 5335 5328 5323 5318 5316 5314 5316 5314
5350 5362 5373 5384 5394 5403 5412 5418 5424 5428 5431 5432 5431 5429 5428 5426 5424 5421 5419 5416 5410 5401 5390 5378 5366 5354 5343 5340 5342 5342 5331 5325 5320 5316 5313 5311 5313 5315
5336 5348 5361 5373 5384 5393 5401 5407 5413 5417 5420 5422 5422 5421 5420 5418 5416 5413 5411 5407 5399 5389 5378 5367 5356 5346 5336 5328 5324 5326 5326 5320 5314 5311 5310 5309 5309 5311
5326 5339 5352 5365 5376 5385 5391 5396 5403 5408 5412 5414 5415 5414 5413 5412 5409 5407 5403 5400 5389 5379 5368 5359 5350 5343 5331 5321 5314 5316 5318 5317 5313 5309 5307 5304 5304 5304
5316 5331 5345 5359 5370 5378 5383 5388 5394 5399 5403 5406 5407 5408 5408 5406 5404 5400 5395 5388 5380 5370 5360 5351 5343 5334 5324 5317 5313 5312 5313 5313 5310 5307 5305 5302 5297 5294
5308 5323 5338 5352 5364 5372 5377 5383 5387 5391 5394 5398 5400 5402 5402 5401 5397 5393 5387 5381 5371 5362 5354 5345 5338 5332 5325 5319 5313 5310 5307 5305 5303 5301 5301 5300 5297 5294